This demonstration page uses our WeatherBlox Daily Observations layout. Learn more.

Left ArrowRight Arrow

36.19886, -115.1175

Hourly Observations for August 12, 2022

Temp ( °F °C ) Dew Point ( °F °C ) Humidity (%) Winds ( mph kmh ) Pressure ( in mb ) Visibility ( mi km ) Precip ( " mm )
12:53 am 00:53 Mostly Clear 82 27.8 67 19.4 60 60 SW 6 9 29.93 1014 10 16 0.00 0.00
1:53 am 01:53 Clear 82 27.8 66 18.9 58 58 Calm 29.92 1013 10 16 0.00 0.00
2:53 am 02:53 Clear 82 27.8 68 20 63 63 Calm 29.93 1014 10 16 0.00 0.00
3:53 am 03:53 Clear 80 26.7 69 20.6 69 69 NW 6 9 29.93 1014 10 16 0.00 0.00
4:53 am 04:53 Clear 80 26.7 67 19.4 64 64 Calm 29.93 1014 10 16 0.00 0.00
5:53 am 05:53 Clear 80 26.7 68 20 67 67 NW 5 7 29.94 1014 10 16 0.00 0.00
6:53 am 06:53 Sunny 81 27.2 68 20 65 65 WNW 3 6 29.96 1015 10 16 0.00 0.00
7:53 am 07:53 Sunny 85 29.4 65 18.3 51 51 Calm 29.97 1015 10 16 0.00 0.00
8:53 am 08:53 Mostly Sunny 88 31.1 64 17.8 45 45 E 5 7 29.98 1015 10 16 0.00 0.00
9:53 am 09:53 Mostly Sunny 90 32.2 64 17.8 42 42 ESE 6 9 29.99 1016 10 16 0.00 0.00
10:53 am 10:53 Sunny 93 33.9 62 16.7 36 36 NE 5 7 29.98 1015 10 16 0.00 0.00
11:53 am 11:53 Sunny 94 34.4 61 16.1 34 34 VRB 5 7 29.96 1015 10 16 0.00 0.00
12:46 pm 12:46 Sunny with Thunderstorms 97 36.1 60 15.6 30 30 Calm 29.78 1009 10 16 0.00 0.00
12:53 pm 12:53 Sunny with Thunderstorms 97 36.1 60 15.6 30 30 undefined N/A 29.94 1014 10 16 0.00 0.00
1:01 pm 13:01 Sunny 96 35.6 60 15.6 30 30 undefined N/A 29.79 1009 10 16 0.00 0.00
1:53 pm 13:53 Partly Cloudy 98 36.7 60 15.6 29 29 NW 6 9 29.92 1013 10 16 0.00 0.00
2:20 pm 14:20 Partly Cloudy with Thunderstorms 98 36.7 59 15 28 28 NNW 7 11 29.77 1008 10 16 0.00 0.00
2:35 pm 14:35 Mostly Cloudy with Nearby Thunderstorms 94 34.4 62 16.7 35 35 NNE 17 28 29.79 1009 10 16 0.00 0.00
2:53 pm 14:53 Partly Cloudy with Nearby Thunderstorms 94 34.4 63 17.2 36 36 ENE 25 41 29.96 1014 10 16 0.00 0.00
3:23 pm 15:23 Sunny 87 30.6 63 17.2 45 45 E 16 26 29.82 1010 10 16 0.00 0.00
3:53 pm 15:53 Sunny 87 30.6 65 18.3 48 48 ENE 13 20 29.94 1014 10 16 0.00 0.00
4:53 pm 16:53 Sunny 87 30.6 63 17.2 45 45 S 14 22 29.98 1015 10 16 0.00 0.00
5:53 pm 17:53 Partly Cloudy with Light Rain 85 29.4 65 18.3 51 51 SW 7 11 29.96 1014 10 16 0.01 0.13
6:53 pm 18:53 Sunny 86 30 65 18.3 50 50 SSE 7 11 29.94 1014 10 16 0.01 0.13
7:53 pm 19:53 Clear 85 29.4 66 18.9 53 53 SE 7 11 29.95 1014 10 16 0.00 0.00
8:53 pm 20:53 Clear 83 28.3 67 19.4 59 59 E 7 11 29.98 1015 10 16 0.00 0.00
9:53 pm 21:53 Clear 83 28.3 66 18.9 57 57 Calm 29.98 1015 10 16 0.00 0.00
10:53 pm 22:53 Clear 83 28.3 66 18.9 57 57 Calm 29.97 1015 10 16 0.00 0.00
11:53 pm 23:53 Clear 83 28.3 67 19.4 59 59 SE 5 7 29.97 1015 10 16 0.00 0.00

Powered by AerisWeather